Weather in Kozlovka

Russia / Saratov Oblast     50°51′36″N   47°34′33″E
temp.,
°C
wind,
m/s
gust,
m/s
humid.,
%
clouds,
%
prec.,
mm/h
press.,
hPa
HPBL,
m
26 february, fri
fri2601:00−9sw61194100 0.8 1017439
04:00−9ssw4795100 0.9 1016191
07:00−7sw349694 0.2 101597
10:00−2sw239796 0.4 1015113
13:00+1w36100100 0.5 1015185
16:00+1wsw35100100 0.5 1014192
19:00+1sw59100100 0.6 1011260
22:00+2wsw61199100 1.9 1009276
27 february, sat
sat2701:00+2wsw71399100 0.1 1006385
04:00+2w71596100 0.1 1006476
07:00+1w51295100 0.0 1005423
10:00+1w61292100 0.0 1006441
13:00+1wsw61199100 0.0 1005453
16:00+1wsw61298100 0.1 1005537
19:000wsw61292100 0.0 1004467
22:00−1wsw6129595 0.1 1004413
28 february, sun
sun2801:00−3nw71193100 0.3 1005410
04:00−9nw6118896 0.3 1007356
07:00−11nw611890 0.0 1008424
10:00−12nw610899 0.0 1010482
13:00−11nw698994 0.0 1012454
16:00−10nw698997 0.0 1013509
19:00−12nw489399 0.0 1015206
22:00−13nw489293 0.0 1017152
1 march, mon
mon101:00−15nnw469313 0.0 1018109
04:00−16nnw34937 0.0 102072
07:00−17nnw34920 0.0 102172
10:00−16nnw35911 0.0 1023206
13:00−14nnw34880 0.0 1025311
16:00−13nw359016 0.0 1025344
19:00−16nw239315 0.0 102622
22:00−16nw22937 0.0 102720
2 march, tue
tue201:00−16wnw22930 0.0 102720
04:00−16w23940 0.0 102723
07:00−16wsw33920 0.0 102631
10:00−13sw37920 0.0 1025213
13:00−9sw58933 0.0 1023299
16:00−6sw6129249 0.0 1020507
19:00−5sw71394100 0.2 1017505
22:00−3sw61296100 0.9 1015450